This demonstration page uses our WeatherBlox Daily Observations layout. Learn more.

Left ArrowRight Arrow

39.92423, -83.80882

Hourly Observations for June 19, 2022

Temp ( °F °C ) Dew Point ( °F °C ) Humidity (%) Winds ( mph kmh ) Pressure ( in mb ) Visibility ( mi km ) Precip ( " mm )
12:56 am 00:56 Clear 54 12.2 45 7.2 72 72 NE 5 7 30.22 1023 10 16 0.00 0.00
1:56 am 01:56 Clear 52 11.1 45 7.2 77 77 NE 5 7 30.22 1023 10 16 0.00 0.00
2:56 am 02:56 Clear 50 10 46 7.8 86 86 ENE 3 6 30.22 1024 10 16 0.00 0.00
3:56 am 03:56 Clear 51 10.6 47 8.3 86 86 NE 3 6 30.23 1024 10 16 0.00 0.00
4:56 am 04:56 Clear 51 10.6 45 7.2 80 80 Calm 30.24 1024 10 16 0.00 0.00
5:56 am 05:56 Clear 50 10 46 7.8 86 86 Calm 30.25 1024 10 16 0.00 0.00
6:56 am 06:56 Sunny 51 10.6 49 9.4 92 92 Calm 30.28 1025 10 16 0.00 0.00
7:56 am 07:56 Sunny 56 13.3 51 10.6 84 84 Calm 30.29 1026 10 16 0.00 0.00
8:56 am 08:56 Sunny 61 16.1 47 8.3 60 60 E 6 9 30.31 1026 10 16 0.00 0.00
9:56 am 09:56 Sunny 66 18.9 43 6.1 43 43 VRB 5 7 30.32 1027 10 16 0.00 0.00
10:56 am 10:56 Sunny 68 20 39 3.9 35 35 ESE 7 11 30.32 1027 10 16 0.00 0.00
11:56 am 11:56 Sunny 70 21.1 39 3.9 32 32 NE 6 9 30.31 1026 10 16 0.00 0.00
12:56 pm 12:56 Sunny 72 22.2 39 3.9 30 30 VRB 3 6 30.31 1026 10 16 0.00 0.00
1:56 pm 13:56 Sunny 74 23.3 41 5 31 31 N 7 11 30.29 1026 10 16 0.00 0.00
2:56 pm 14:56 Sunny 75 23.9 41 5 29 29 ENE 9 15 30.27 1025 10 16 0.00 0.00
3:56 pm 15:56 Sunny 75 23.9 41 5 29 29 Calm 30.24 1024 10 16 0.00 0.00
4:56 pm 16:56 Sunny 77 25 41 5 28 28 NNW 5 7 30.23 1024 9 14 0.00 0.00
5:56 pm 17:56 Sunny 76 24.4 43 6.1 31 31 Calm 30.21 1023 10 16 0.00 0.00
6:56 pm 18:56 Sunny 76 24.4 45 7.2 33 33 VRB 3 6 30.22 1023 10 16 0.00 0.00
7:56 pm 19:56 Sunny 74 23.3 45 7.2 36 36 Calm 30.21 1023 10 16 0.00 0.00
8:56 pm 20:56 Sunny 72 22.2 48 8.9 43 43 Calm 30.20 1023 10 16 0.00 0.00
9:56 pm 21:56 Clear 66 18.9 54 12.2 65 65 Calm 30.20 1023 10 16 0.00 0.00
10:56 pm 22:56 Clear 64 17.8 54 12.2 70 70 Calm 30.21 1023 10 16 0.00 0.00
11:56 pm 23:56 Clear 60 15.6 55 12.8 84 84 ESE 3 6 30.21 1023 10 16 0.00 0.00

Powered by AerisWeather